Location: Caltech
(34.1382°N, 118.1253°W)
Time: 16:24:27
(UTC-07:00)

Cosmos 1697 Rocket - Visible Passes

Search period start: 20 October 2017 00:00
Search period end: 30 October 2017 00:00
Orbit: 831 x 845 km, 71.0° (Epoch: 19 October)

Date Brightness Start Highest point End Pass type
(mag) Time Alt. Az. Time Alt. Az. Time Alt. Az.
20 Oct 3.5 06:19:27 10° S 06:24:58 58° ESE 06:30:31 10° NNE visible
21 Oct 3.6 06:03:22 10° S 06:08:50 53° ESE 06:14:20 10° NNE visible
22 Oct 3.7 05:47:19 10° S 05:52:42 49° ESE 05:58:08 10° NNE visible
23 Oct 3.8 05:31:14 10° S 05:36:34 45° ESE 05:41:56 10° NE visible
24 Oct 4.0 05:15:12 10° S 05:20:27 41° ESE 05:25:44 10° NE visible
25 Oct 4.1 04:59:10 10° S 05:04:20 38° ESE 05:09:31 10° NE visible
26 Oct 4.2 04:43:09 10° SSE 04:48:12 35° ESE 04:53:16 10° NE visible
26 Oct 3.6 06:27:22 10° WSW 06:32:08 28° WNW 06:36:57 10° N visible
27 Oct 4.3 04:28:20 16° SSE 04:32:05 32° ESE 04:37:03 10° NE visible
27 Oct 3.5 06:11:04 10° WSW 06:15:58 30° WNW 06:20:53 10° N visible
28 Oct 4.3 04:14:56 28° ESE 04:15:58 29° ESE 04:20:48 10° NE visible
28 Oct 3.4 05:56:48 20° WSW 05:59:47 32° WNW 06:04:50 10° N visible
29 Oct 4.6 04:00:51 26° E 04:00:51 26° E 04:04:33 10° NE visible
29 Oct 3.3 05:42:41 32° W 05:43:37 34° WNW 05:48:45 10° N visible
